Location: Centerville
(32.8776°N, 96.6203°W)
Time: 00:48:33
(UTC+00:00)

SL-24 DEB - Pass Details

Date: 17 June 2021
Orbit: 663 x 701 km, 92.0° (Epoch: 27 July)

Event Time Altitude Azimuth Distance (km) Brightness Sun altitude
Exits shadow 02:45:34 - 177° (S) 2,394 6.7 -12.8°
Reaches altitude 10° 02:46:14 10° 177° (S) 2,127 6.4 -12.9°
Maximum altitude 02:50:56 80° 264° (W) 706 4.4 -13.7°
Drops below altitude 10° 02:55:43 10° 353° (N) 2,160 7.6 -14.4°
Sets 02:58:00 0° 354° (N) 3,085 8.4 -14.8°
